sat.trackr.live / text

‹ back to catalog

2025-292C

NORAD 66995 · 2025-292C

PAYLOAD ACTIVE UNKNOWN

§ Identity

Operator
Country
PRC
Launch date
2025-12-10
Launch site
JSC
Launch vehicle
Mass (kg)
RCS (m²)

External: N2YO · Heavens-Above · Gunter

§ Orbital elements

Epoch: 2026-05-25T04:15:43.908192Z

Period
95.59 min
Inclination
97.6308°
Eccentricity
0.0016253
Mean motion
15.06362011 rev/d
Perigee alt
536.1 km
Apogee alt
558.6 km
Semi-major
6,925.5 km
B*
2.8615e-4
RAAN
221.1410°
Arg perigee
78.3283°
Mean anomaly
281.9766°
Rev number
2,498

§ Raw data

2025-292C1 66995U 25292C   26145.17759153  .00004161  00000+0  28615-3 0  99972 66995  97.6308 221.1410 0016253  78.3283 281.9766 15.06362011 24986

JSON: /api/v1/satellites/66995 · /tle

For live sub-satellite position, see the globe view (requires WebGL).

§ Visibility from observer

Set your observer location to see the next 7 days of passes ≥ 10°. The values pass through the URL so the page stays shareable.

No JS? Fill the form by hand. The geolocation button needs JavaScript.